This demonstration page uses our WeatherBlox Daily Observations layout. Learn more.

Left ArrowRight Arrow

44.31136, -96.79839

Hourly Observations for August 16, 2017

Temp ( °F °C ) Dew Point ( °F °C ) Humidity (%) Winds ( mph kmh ) Pressure ( in mb ) Visibility ( mi km ) Precip ( " mm )
12:56 am 00:56 Cloudy 65 18.3 63 17.2 93 93 SE 9 15 29.88 1012 N/A 0.00 0.00
1:29 am 01:29 Cloudy 64 18 63 17 94 94 SE 12 19 29.85 1011 N/A 0.00 0.00
1:56 am 01:56 Cloudy 65 18.3 63 17.2 93 93 SSE 12 19 29.88 1012 N/A 0.00 0.00
2:56 am 02:56 Cloudy 66 18.9 64 17.8 93 93 SSE 12 19 29.88 1012 N/A 0.00 0.00
3:56 am 03:56 Cloudy 66 18.9 64 17.8 93 93 S 9 15 29.90 1012 N/A 0.00 0.00
4:32 am 04:32 Cloudy 64 18 64 18 100 100 S 7 11 29.85 1011 N/A 0.00 0.00
4:56 am 04:56 Mostly Cloudy 65 18.3 64 17.8 97 97 S 5 7 29.88 1012 N/A 0.00 0.00
5:06 am 05:06 Partly Cloudy 64 18 63 17 94 94 S 5 7 29.80 1009 N/A 0.00 0.00
5:56 am 05:56 Mostly Cloudy 65 18.3 63 17.2 93 93 S 6 9 29.88 1012 N/A 0.00 0.00
6:18 am 06:18 Partly Cloudy with Light Rain 64 18 63 17 94 94 SSE 6 9 29.80 1009 N/A 0.00 0.03
6:56 am 06:56 Sunny 64 17.8 63 17.2 96 96 SSE 6 9 29.87 1012 N/A 0.00 0.03
7:33 am 07:33 Mostly Cloudy 64 18 64 18 100 100 Calm 29.80 1009 N/A 0.00 0.00
7:56 am 07:56 Cloudy 65 18.3 64 17.8 97 97 NNE 3 6 29.86 1011 N/A 0.00 0.00
8:56 am 08:56 Mostly Cloudy with Light Rain 66 18.9 64 17.8 93 93 SSE 7 11 29.88 1012 N/A 0.00 0.03
9:56 am 09:56 Cloudy with Light Rain 66 18.9 64 17.8 93 93 S 5 7 29.89 1012 N/A 0.05 1.27
10:06 am 10:06 Cloudy with Heavy Rain 66 19 64 18 94 94 S 6 9 29.83 1010 N/A 0.03 0.76
10:12 am 10:12 Cloudy with Heavy Rain 64 18 64 18 100 100 Calm 29.80 1009 N/A 0.07 1.78
10:26 am 10:26 Cloudy with Light Rain 66 19 64 18 94 94 ESE 3 6 29.80 1009 N/A 0.10 2.54
10:38 am 10:38 Cloudy with Light Rain 66 19 64 18 94 94 ESE 6 9 29.80 1009 N/A 0.11 2.79
10:47 am 10:47 Cloudy with Light Rain 66 19 64 18 94 94 E 3 6 29.80 1009 N/A 0.12 3.05
10:56 am 10:56 Cloudy with Light Rain 66 18.9 65 18.3 96 96 ENE 5 7 29.87 1011 N/A 0.13 3.30
11:56 am 11:56 Cloudy with Light Rain 67 19.4 65 18.3 93 93 NNE 7 11 29.85 1011 N/A 0.01 0.25
12:34 pm 12:34 Cloudy with Light Rain 66 19 64 18 94 94 NE 8 13 29.77 1008 N/A 0.01 0.25
12:56 pm 12:56 Cloudy with Light Rain 67 19.4 65 18.3 93 93 NNE 3 6 29.85 1011 N/A 0.02 0.51
1:56 pm 13:56 Cloudy with Rain 67 19.4 66 18.9 97 97 N 3 6 29.84 1010 N/A 0.10 2.54
2:26 pm 14:26 Cloudy with Rain 66 19 64 18 94 94 N 6 9 29.74 1007 N/A 0.09 2.29
2:56 pm 14:56 Cloudy with Rain 66 18.9 65 18.3 96 96 N 5 7 29.82 1010 N/A 0.26 6.60
3:07 pm 15:07 Cloudy with Rain 66 19 64 18 94 94 NE 8 13 29.74 1007 N/A 0.04 1.02
3:33 pm 15:33 Cloudy with Light Rain 66 19 64 18 94 94 NNE 7 11 29.71 1006 N/A 0.08 2.03
3:56 pm 15:56 Cloudy with Light Rain 66 18.9 65 18.3 96 96 N 10 17 29.79 1009 N/A 0.09 2.29
4:07 pm 16:07 Cloudy with Light Rain 66 19 64 18 94 94 N 8 13 29.71 1006 N/A 0.01 0.25
4:24 pm 16:24 Cloudy with Light Rain 66 19 64 18 94 94 N 8 13 29.71 1006 N/A 0.01 0.25
4:56 pm 16:56 Cloudy with Heavy Rain 66 18.9 65 18.3 96 96 N 8 13 29.77 1008 N/A 0.09 2.29
5:11 pm 17:11 Cloudy with Heavy Rain 66 19 64 18 94 94 N 9 15 29.68 1005 N/A 0.03 0.76
5:43 pm 17:43 Cloudy with Rain 66 19 64 18 94 94 NNE 8 13 29.68 1005 N/A 0.09 2.29
5:51 pm 17:51 Cloudy with Rain 64 18 64 18 100 100 NNE 8 13 29.68 1005 N/A 0.10 2.54
5:56 pm 17:56 Cloudy with Rain 65 18.3 64 17.8 97 97 NNE 8 13 29.77 1008 N/A 0.12 3.05
6:52 pm 18:52 Cloudy with Light Rain 64 18 64 18 100 100 N 8 13 29.68 1005 N/A 0.05 1.27
6:56 pm 18:56 Cloudy with Rain 65 18.3 64 17.8 97 97 N 9 15 29.76 1008 N/A 0.06 1.52
7:34 pm 19:34 Cloudy with Rain 64 18 64 18 100 100 N 15 24 29.68 1005 N/A 0.06 1.52
7:56 pm 19:56 Cloudy with Rain 65 18.3 64 17.8 97 97 N 16 26 29.73 1007 N/A 0.12 3.05
8:40 pm 20:40 Cloudy with Rain 64 18 63 17 94 94 NNW 13 20 29.68 1005 N/A 0.11 2.79
8:56 pm 20:56 Cloudy with Rain 64 17.8 63 17.2 96 96 NW 10 17 29.74 1007 N/A 0.14 3.56
9:56 pm 21:56 Cloudy with Rain 65 18.3 64 17.8 97 97 NNW 8 13 29.77 1008 N/A 0.10 2.54
10:45 pm 22:45 Cloudy with Rain 64 18 64 18 100 100 N 9 15 29.68 1005 N/A 0.21 5.33
10:56 pm 22:56 Cloudy with Rain 65 18.3 64 17.8 97 97 NNW 14 22 29.77 1008 N/A 0.26 6.60
11:19 pm 23:19 Cloudy with Rain 64 18 64 18 100 100 NNW 12 19 29.68 1005 N/A 0.03 0.76
11:21 pm 23:21 Cloudy with Rain 64 18 64 18 100 100 NNW 13 20 29.68 1005 N/A 0.04 1.02
11:56 pm 23:56 Cloudy with Light Rain 65 18.3 64 17.8 97 97 NW 16 26 29.76 1008 N/A 0.14 3.56

Powered by AerisWeather